Regional Weather Roundup
Issued by NWS Charleston, SC

Current Version | Previous Version | Text Only | Print | Product List | Glossary Off
Versions: 1 2 3 4 5 6 7 8 9 10 11 12 13 14 15 16 17 18 19 20 21 22 23 24 25 26 27 28 29 30 31 32 33 34 35 36 37 38 39 40 41 42 43 44 45 46 47 48 49 50

000
ASUS42 KCHS 280425
RWRCHS

REGIONAL WEATHER ROUNDUP
NATIONAL WEATHER SERVICE CHARLESTON SC
1100 PM EST TUE JAN 27 2015

NOTE: "FAIR" INDICATES FEW OR NO CLOUDS BELOW 12,000 FEET WITH NO
SIGNIFICANT WEATHER AND/OR OBSTRUCTIONS TO VISIBILITY.

NOT ALL STATIONS ARE QUALITY CONTROLLED BY THE NATIONAL
WEATHER SERVICE. USE DATA WITH CAUTION...ESPECIALLY
DEWPOINT OBSERVATIONS.

SCZ027-030-031-034>040-042>050-280500-
...SOUTHEAST SOUTH CAROLINA...

CITY           SKY/WX    TMP DP  RH WIND       PRES   REMARKS
N CHARLESTON   CLEAR     37  30  75 CALM      30.00R
WATERFRONT PRK   N/A     41 N/A N/A W5          N/A
MOUNT PLEASANT FAIR     N/A N/A N/A CALM      30.00R
PINOPOLIS      NOT AVBL
MONCKS CORNER  FAIR      34  30  86 CALM      30.00R
SUMMERVILLE    NOT AVBL
BEAUFORT MCAS  CLEAR     41  32  70 W9        30.01R
BEAUFORT ARPT  FAIR      41  36  81 NW8       30.01R
HILTON HEAD IS CLEAR     45  32  61 NW6       30.03R
WALTERBORO     CLEAR     36  36 100 NW3       30.03R
ALLENDALE      FAIR      41  30  65 VRB5      30.03R

...SOUTHERN MIDLANDS AND PEE DEE...

CITY           SKY/WX    TMP DP  RH WIND       PRES   REMARKS
GEORGETOWN     NOT AVBL
KINGSTREE      NOT AVBL
ORANGEBURG     CLEAR     38  27  64 NW5       30.02R WCI  34
BARNWELL       FAIR      39  30  70 NW10      30.04R WCI  32
AIKEN          FAIR      36  27  69 N6        30.06R WCI  31
MANNING        FAIR      32  28  86 CALM      30.01R
COLUMBIA       CLEAR     40  25  55 NW7       30.03R WCI  35
SUMTER         CLEAR     37  24  59 NW6       29.99R WCI  32
FLORENCE       CLEAR     39  22  50 N10       30.00R WCI  32
MYRTLE BEACH   CLEAR     34  27  75 CALM      30.00R
N MYRTLE BEACH CLEAR     35  23  61 CALM      29.97R

$$

GAZ063-065-086>088-099>101-113>116-118-119-134>141-150-280500-
...SOUTHEAST GEORGIA...

CITY           SKY/WX    TMP DP  RH WIND       PRES   REMARKS
SAVANNAH ARPT  CLEAR     42  30  62 NW10      30.03R
HUNTER AAF     CLEAR     43  31  64 NW12      30.01R
FORT STEWART   CLEAR     40  31  71 W6        30.03R WCI  35
STATESBORO     CLEAR     40  33  73 NW8       30.05R WCI  35
SYLVANIA       CLEAR     41  32  69 NW8       30.05R
CLAXTON        FAIR      41  32  70 NW6       30.06R

...CSRA...CENTRAL AND FAR SOUTHEAST GEORGIA...

CITY           SKY/WX    TMP DP  RH WIND       PRES   REMARKS
THOMSON        CLEAR     39  32  74 NW5       30.10R WCI  36
AUGUSTA-BUSH   CLEAR     41  27  57 NW8       30.05R
AUGUSTA-DANIEL CLEAR     42  27  55 NW7       30.04R
SWAINSBORO     FAIR      41  27  56 NW7       30.07R
VIDALIA        CLEAR     43  32  65 NW5       30.07R
EASTMAN        FAIR      40  32  74 CALM      30.11R
HAZLEHURST     FAIR      44  33  65 N9        30.07R
ALMA           CLEAR     36  31  82 N3        30.06R
WAYCROSS       CLEAR     44  35  71 NW3       30.07R
JESUP          FAIR      43  34  70 CALM      30.07R
BAXLEY         FAIR      45  32  61 NW7       30.07R
BRUNSWICK      CLEAR     39  34  81 W3        30.07R
SAINT SIMONS   CLEAR     43  34  70 W5        30.05R

$$

SCZ027-028-034-036>038-045-046-048>050-GAZ119-141-280500-
...LAKE AND SUPPLEMENTAL COASTAL OBSERVATIONS...

STATION/POSITION TIME  TEMP    WIND        PRES    WAVE   SWELL
                       AIR SEA DIR/SP/G            HT/PER HT/PER/DIR
                 (UTC) (F)     (DEG/KT/KT) (MB)    (FT/S) (FT/S/D)
UPR LAKE MARION  NOT AVBL
WINYAH BAY       0300   37     280/  2     1013.0
LAKE MURRAY      0300   39     340/  4/  9 1015.6R
ACE BASIN NERRS  NOT AVBL
FORT PULASKI     0400   46 52  300/ 14/ 17 1016.9R
SAPELO ISLAND    0400   44     290/  5     1017.0R

$$

ANZ835-935-AMZ111-154-330-350-352-354-370-450-454-472-280500-
...C-MAN AND BUOY OBSERVATIONS...

STATION/POSITION TIME  TEMP    WIND        PRES    WAVE   SWELL
                       AIR SEA DIR/SP/G            HT/PER HT/PER/DIR
                 (UTC) (F)     (DEG/KT/KT) (MB)    (FT/S) (FT/S/D)
BUOY 41004       0350   51 67  310/ 16/ 21 1015.0R   4/ 5   2/12
BUOY 41008       0350   51 54  320/ 17/ 19 1016.2R   2/ 4
FOLLY BEACH CMAN 0400   40     260/  4/  5 1016.3R
CAPERS NEARSHORE 0300   47     280/  8/  8   N/A
FRIPP NEARSHORE  0300   49     270/  8/ 10   N/A


STATION/POSITION TIME  TEMP    WIND        PRES    WAVE   SWELL
                       AIR SEA DIR/SP/G            HT/PER HT/PER/DIR
                 (UTC) (F)     (DEG/KT/KT) (MB)    (FT/S) (FT/S/D)
5E ST. MARYS GA  0322      58                N/A     2/ 4
FRYING PAN BUOY  0350   48 65  320/ 19/ 23 1014.5R   5/ 5   2/ 90/13
BUOY 41025       0350   41 69  340/ 19/ 23 1011.8R   8/13   7/ 40/13
CAPE LOOKOUT NC  0400   39     330/  9/ 11 1013.5R
BUOY 41002       0350   57 71  300/ 23/ 31 1010.5R  13/ 8   8/340/13
BUOY 41010       0320   65 75  320/ 25/ 29 1013.4R
ST AUGUSTINE FL  0400   49     330/  8/  9 1018.0R


$$



USA.gov is the U.S. government's official web portal to all federal, state and local government web resources and services.